PGT1918 LTFJ-LCEN

Flight info

Callsign PGT1918
Flight time 1h 18m
Altitude 35000
Route ROXUK1J/06L ROXUK UT409 NUMTI DCT KULAR UT44 LAVTA UW87 ATSAL
Aircraft A21N/M-SDE2E3FGHIJ1RWXY/LB1

Departure

Time 2026-05-06 18:07
Airport Istanbul Sabiha Gökçen International Airport (LTFJ)

Arrival

Time 2026-05-06 19:25
Airport Ercan International Airport (LCEN)
Time Latitude Longitude Altitude Speed Heading
2026-05-06 17:36 40.90502 29.31360 316 ft 0 kts 334°
2026-05-06 17:54 40.90492 29.31367 316 ft 4 kts 334°
2026-05-06 17:54 40.90472 29.31379 315 ft 2 kts 334°
2026-05-06 17:54 40.90451 29.31397 314 ft 4 kts 308°
2026-05-06 17:55 40.90444 29.31423 314 ft 3 kts 246°
2026-05-06 17:55 40.90446 29.31427 313 ft 1 kts 243°
2026-05-06 17:58 40.90445 29.31424 314 ft 1 kts 243°
2026-05-06 17:58 40.90437 29.31404 316 ft 4 kts 243°
2026-05-06 17:58 40.90423 29.31367 316 ft 5 kts 245°
2026-05-06 17:58 40.90404 29.31313 316 ft 7 kts 245°
2026-05-06 17:59 40.90379 29.31242 315 ft 9 kts 244°
2026-05-06 17:59 40.90346 29.31156 316 ft 11 kts 244°
2026-05-06 17:59 40.90309 29.31054 316 ft 13 kts 244°
2026-05-06 17:59 40.90267 29.30940 316 ft 5 kts 244°
2026-05-06 18:00 40.90252 29.30900 316 ft 6 kts 243°
2026-05-06 18:00 40.90211 29.30878 315 ft 8 kts 168°
2026-05-06 18:00 40.90155 29.30909 316 ft 10 kts 153°
2026-05-06 18:00 40.90083 29.30923 316 ft 12 kts 202°
2026-05-06 18:01 40.90032 29.30831 316 ft 14 kts 245°
2026-05-06 18:01 40.90005 29.30757 316 ft 10 kts 244°
2026-05-06 18:01 40.89973 29.30669 316 ft 12 kts 244°
2026-05-06 18:01 40.89934 29.30566 315 ft 13 kts 248°
2026-05-06 18:02 40.89891 29.30448 316 ft 15 kts 244°
2026-05-06 18:02 40.89844 29.30318 314 ft 16 kts 244°
2026-05-06 18:02 40.89792 29.30177 314 ft 18 kts 244°
2026-05-06 18:02 40.89735 29.30025 313 ft 19 kts 244°
2026-05-06 18:03 40.89676 29.29863 311 ft 20 kts 244°
2026-05-06 18:03 40.89612 29.29691 311 ft 21 kts 244°
2026-05-06 18:03 40.89547 29.29514 308 ft 22 kts 244°
2026-05-06 18:03 40.89496 29.29377 308 ft 11 kts 244°
2026-05-06 18:04 40.89454 29.29278 309 ft 13 kts 223°
2026-05-06 18:04 40.89369 29.29269 308 ft 10 kts 152°
2026-05-06 18:04 40.89364 29.29272 308 ft 0 kts 151°
2026-05-06 18:05 40.89364 29.29273 308 ft 1 kts 151°
2026-05-06 18:05 40.89349 29.29283 309 ft 4 kts 151°
2026-05-06 18:05 40.89316 29.29308 306 ft 7 kts 151°
2026-05-06 18:05 40.89286 29.29368 307 ft 10 kts 81°
2026-05-06 18:06 40.89318 29.29465 310 ft 17 kts 64°
2026-05-06 18:06 40.89487 29.29921 314 ft 90 kts 64°
2026-05-06 18:06 40.89848 29.30908 317 ft 145 kts 64°
2026-05-06 18:06 40.90303 29.32174 717 ft 152 kts 63°
2026-05-06 18:07 40.90755 29.33448 1276 ft 156 kts 63°
2026-05-06 18:07 40.91259 29.34808 1644 ft 176 kts 64°
2026-05-06 18:07 40.91826 29.36354 2101 ft 198 kts 64°
2026-05-06 18:07 40.92447 29.38060 2748 ft 213 kts 65°
2026-05-06 18:08 40.92859 29.39998 3411 ft 227 kts 86°
2026-05-06 18:08 40.92621 29.42162 3893 ft 252 kts 112°
2026-05-06 18:08 40.91556 29.44083 4446 ft 270 kts 142°
2026-05-06 18:08 40.89900 29.45319 5244 ft 278 kts 156°
2026-05-06 18:09 40.88115 29.46375 6104 ft 284 kts 156°
2026-05-06 18:09 40.86301 29.47463 6943 ft 289 kts 155°
2026-05-06 18:09 40.84464 29.48591 7786 ft 294 kts 155°
2026-05-06 18:09 40.82603 29.49752 8660 ft 298 kts 154°
2026-05-06 18:10 40.80716 29.50940 9558 ft 303 kts 154°
2026-05-06 18:10 40.78794 29.52155 10329 ft 312 kts 154°
2026-05-06 18:10 40.76865 29.53650 10717 ft 333 kts 139°
2026-05-06 18:10 40.75253 29.55957 11075 ft 352 kts 126°
2026-05-06 18:11 40.73775 29.58585 11722 ft 361 kts 125°
2026-05-06 18:11 40.72028 29.60988 12478 ft 368 kts 142°
2026-05-06 18:11 40.69748 29.62546 13279 ft 373 kts 162°
2026-05-06 18:11 40.67180 29.63124 14053 ft 377 kts 176°
2026-05-06 18:12 40.64552 29.63313 14796 ft 380 kts 178°
2026-05-06 18:12 40.61897 29.63508 15523 ft 384 kts 177°
2026-05-06 18:12 40.59219 29.63759 16235 ft 388 kts 176°
2026-05-06 18:12 40.56517 29.64048 16949 ft 392 kts 176°
2026-05-06 18:13 40.53786 29.64358 17659 ft 396 kts 176°
2026-05-06 18:13 40.51031 29.64677 18369 ft 399 kts 176°
2026-05-06 18:13 40.48247 29.65001 18935 ft 404 kts 176°
2026-05-06 18:13 40.45431 29.65328 19465 ft 409 kts 176°
2026-05-06 18:14 40.42580 29.65649 19998 ft 413 kts 177°
2026-05-06 18:14 40.39717 29.65379 20509 ft 414 kts 194°
2026-05-06 18:14 40.36913 29.64454 21065 ft 417 kts 198°
2026-05-06 18:14 40.34102 29.63433 21622 ft 421 kts 198°
2026-05-06 18:15 40.31265 29.62426 22180 ft 425 kts 197°
2026-05-06 18:15 40.28395 29.61439 22731 ft 428 kts 197°
2026-05-06 18:15 40.25500 29.60461 23277 ft 432 kts 197°
2026-05-06 18:15 40.22576 29.59482 23785 ft 435 kts 197°
2026-05-06 18:16 40.19635 29.58500 24249 ft 438 kts 197°
2026-05-06 18:16 40.16668 29.57511 24699 ft 441 kts 197°
2026-05-06 18:16 40.13685 29.56516 25143 ft 444 kts 197°
2026-05-06 18:16 40.10677 29.55509 25570 ft 447 kts 197°
2026-05-06 18:17 40.07657 29.54499 25991 ft 450 kts 197°
2026-05-06 18:17 40.04608 29.53485 26358 ft 454 kts 198°
2026-05-06 18:17 40.01570 29.52476 26709 ft 459 kts 198°
2026-05-06 18:17 39.98460 29.51449 27088 ft 463 kts 198°
2026-05-06 18:18 39.95330 29.50420 27506 ft 465 kts 198°
2026-05-06 18:18 39.92183 29.49388 27903 ft 468 kts 198°
2026-05-06 18:18 39.89013 29.48347 28274 ft 471 kts 198°
2026-05-06 18:18 39.85822 29.47294 28572 ft 475 kts 198°
2026-05-06 18:19 39.82609 29.46234 28896 ft 478 kts 198°
2026-05-06 18:19 39.79368 29.45162 29234 ft 482 kts 198°
2026-05-06 18:19 39.76108 29.44086 29579 ft 485 kts 198°
2026-05-06 18:19 39.72828 29.43001 29924 ft 488 kts 198°
2026-05-06 18:20 39.69533 29.41914 30302 ft 488 kts 198°
2026-05-06 18:20 39.66248 29.40836 30729 ft 487 kts 198°
2026-05-06 18:20 39.62965 29.39753 31101 ft 486 kts 199°
2026-05-06 18:20 39.59694 29.38679 31495 ft 485 kts 199°
2026-05-06 18:21 39.56415 29.37601 31870 ft 485 kts 199°
2026-05-06 18:21 39.53150 29.36529 32264 ft 483 kts 199°
2026-05-06 18:21 39.49890 29.35459 32617 ft 483 kts 199°
2026-05-06 18:21 39.46630 29.34391 32965 ft 483 kts 199°
2026-05-06 18:22 39.43372 29.33332 33307 ft 482 kts 199°
2026-05-06 18:22 39.40124 29.32267 33664 ft 481 kts 199°
2026-05-06 18:22 39.36877 29.31202 33996 ft 481 kts 199°
2026-05-06 18:22 39.33635 29.30149 34283 ft 481 kts 199°
2026-05-06 18:23 39.30390 29.29097 34546 ft 480 kts 199°
2026-05-06 18:23 39.27153 29.28039 34801 ft 480 kts 199°
2026-05-06 18:23 39.23918 29.26986 35053 ft 480 kts 199°
2026-05-06 18:23 39.20686 29.25936 35130 ft 478 kts 199°
2026-05-06 18:24 39.14231 29.23849 35094 ft 479 kts 199°
2026-05-06 18:24 39.07753 29.21761 35102 ft 480 kts 199°
2026-05-06 18:25 39.01320 29.19676 35100 ft 480 kts 199°
2026-05-06 18:25 38.94840 29.17594 35103 ft 480 kts 199°
2026-05-06 18:26 38.88358 29.15519 35099 ft 480 kts 199°
2026-05-06 18:26 38.81890 29.13426 35098 ft 479 kts 199°
2026-05-06 18:27 38.75414 29.11352 35095 ft 480 kts 199°
2026-05-06 18:27 38.68943 29.09279 35093 ft 480 kts 199°
2026-05-06 18:28 38.62466 29.07213 35088 ft 480 kts 199°
2026-05-06 18:28 38.55988 29.05141 35087 ft 481 kts 199°
2026-05-06 18:29 38.49496 29.03079 35091 ft 481 kts 199°
2026-05-06 18:29 38.42999 29.01017 35079 ft 481 kts 199°
2026-05-06 18:30 38.36510 28.98967 35088 ft 480 kts 199°
2026-05-06 18:30 38.30019 28.96963 35084 ft 479 kts 200°
2026-05-06 18:31 38.24648 28.95214 35070 ft 479 kts 200°
2026-05-06 18:31 38.18177 28.93159 35091 ft 479 kts 200°
2026-05-06 18:32 38.11709 28.91123 35095 ft 479 kts 200°
2026-05-06 18:32 38.05235 28.89089 35096 ft 479 kts 200°
2026-05-06 18:33 37.98770 28.87062 35090 ft 478 kts 200°
2026-05-06 18:33 37.92314 28.85040 35099 ft 478 kts 200°
2026-05-06 18:34 37.85860 28.83023 35100 ft 478 kts 200°
2026-05-06 18:34 37.79419 28.81015 35097 ft 475 kts 200°
2026-05-06 18:35 37.72990 28.79013 35104 ft 476 kts 200°
2026-05-06 18:35 37.66559 28.77014 35105 ft 476 kts 200°
2026-05-06 18:36 37.60061 28.75305 35102 ft 483 kts 189°
2026-05-06 18:36 37.56681 28.75384 35101 ft 491 kts 176°
2026-05-06 18:36 37.53341 28.76395 35105 ft 497 kts 162°
2026-05-06 18:37 37.50240 28.78316 35117 ft 499 kts 148°
2026-05-06 18:37 37.47540 28.81042 35121 ft 499 kts 134°
2026-05-06 18:37 37.45368 28.84428 35124 ft 497 kts 120°
2026-05-06 18:37 37.43757 28.88247 35130 ft 493 kts 112°
2026-05-06 18:38 37.40910 28.96093 35136 ft 493 kts 111°
2026-05-06 18:38 37.38028 29.03942 35133 ft 495 kts 112°
2026-05-06 18:39 37.35094 29.11772 35141 ft 495 kts 112°
2026-05-06 18:40 37.30668 29.23483 35135 ft 493 kts 112°
2026-05-06 18:40 37.27720 29.31261 35147 ft 493 kts 112°
2026-05-06 18:41 37.24794 29.38973 35155 ft 492 kts 112°
2026-05-06 18:41 37.21840 29.46732 35162 ft 493 kts 112°
2026-05-06 18:42 37.18884 29.54479 35175 ft 493 kts 113°
2026-05-06 18:42 37.15919 29.62234 35136 ft 493 kts 113°
2026-05-06 18:43 37.12948 29.69978 35128 ft 493 kts 113°
2026-05-06 18:43 37.09972 29.77721 35128 ft 493 kts 113°
2026-05-06 18:44 37.06994 29.85452 35137 ft 493 kts 113°
2026-05-06 18:44 37.04007 29.93182 35129 ft 494 kts 113°
2026-05-06 18:45 37.01013 30.00913 35118 ft 494 kts 113°
2026-05-06 18:45 36.98016 30.08632 35113 ft 493 kts 113°
2026-05-06 18:46 36.95014 30.16346 35123 ft 493 kts 113°
2026-05-06 18:46 36.92005 30.24046 35117 ft 494 kts 114°
2026-05-06 18:47 36.88981 30.31753 35100 ft 494 kts 114°
2026-05-06 18:47 36.85973 30.39456 35103 ft 494 kts 114°
2026-05-06 18:48 36.82954 30.47149 35103 ft 493 kts 114°
2026-05-06 18:48 36.79934 30.54818 35107 ft 492 kts 114°
2026-05-06 18:49 36.76907 30.62483 35109 ft 493 kts 114°
2026-05-06 18:49 36.73871 30.70143 35112 ft 493 kts 114°
2026-05-06 18:50 36.70832 30.77803 35106 ft 493 kts 114°
2026-05-06 18:50 36.67795 30.85446 35104 ft 492 kts 114°
2026-05-06 18:51 36.64751 30.93083 35097 ft 492 kts 114°
2026-05-06 18:51 36.61702 31.00706 35097 ft 492 kts 115°
2026-05-06 18:52 36.58652 31.08317 35096 ft 491 kts 115°
2026-05-06 18:52 36.55599 31.15919 35096 ft 492 kts 115°
2026-05-06 18:53 36.52528 31.23544 35099 ft 493 kts 115°
2026-05-06 18:53 36.49477 31.31101 35115 ft 491 kts 115°
2026-05-06 18:54 36.46413 31.38687 35104 ft 491 kts 115°
2026-05-06 18:54 36.44891 31.42446 34728 ft 486 kts 115°
2026-05-06 18:54 36.43362 31.46207 33982 ft 490 kts 115°
2026-05-06 18:54 36.41822 31.49999 33253 ft 493 kts 115°
2026-05-06 18:55 36.40278 31.53794 32700 ft 490 kts 115°
2026-05-06 18:55 36.38750 31.57548 32178 ft 485 kts 115°
2026-05-06 18:55 36.37234 31.61267 31682 ft 481 kts 115°
2026-05-06 18:55 36.35731 31.64952 31203 ft 476 kts 115°
2026-05-06 18:56 36.34239 31.68602 30741 ft 473 kts 115°
2026-05-06 18:56 36.32760 31.72221 30284 ft 469 kts 115°
2026-05-06 18:56 36.31290 31.75811 29777 ft 465 kts 116°
2026-05-06 18:56 36.29832 31.79369 29254 ft 461 kts 116°
2026-05-06 18:57 36.28383 31.82893 28764 ft 457 kts 116°
2026-05-06 18:57 36.26946 31.86384 28281 ft 453 kts 116°
2026-05-06 18:57 36.25522 31.89850 27803 ft 450 kts 116°
2026-05-06 18:57 36.24106 31.93294 27339 ft 447 kts 116°
2026-05-06 18:58 36.22700 31.96709 26876 ft 443 kts 116°
2026-05-06 18:58 36.21302 32.00098 26405 ft 440 kts 116°
2026-05-06 18:58 36.19916 32.03461 25955 ft 437 kts 116°
2026-05-06 18:58 36.18537 32.06800 25514 ft 434 kts 116°
2026-05-06 18:59 36.17163 32.10120 25131 ft 432 kts 116°
2026-05-06 18:59 36.15802 32.13407 24678 ft 427 kts 116°
2026-05-06 18:59 36.14449 32.16667 24141 ft 425 kts 116°
2026-05-06 18:59 36.13102 32.19904 23608 ft 422 kts 116°
2026-05-06 19:00 36.11763 32.23124 23004 ft 420 kts 116°
2026-05-06 19:00 36.10433 32.26320 22479 ft 416 kts 116°
2026-05-06 19:00 36.09115 32.29486 21968 ft 412 kts 116°
2026-05-06 19:00 36.08251 32.31561 21646 ft 409 kts 116°
2026-05-06 19:01 36.06521 32.35711 21032 ft 403 kts 117°
2026-05-06 19:01 36.05242 32.38773 20581 ft 399 kts 117°
2026-05-06 19:01 36.03974 32.41809 20134 ft 396 kts 117°
2026-05-06 19:01 36.02714 32.44822 19696 ft 393 kts 117°
2026-05-06 19:02 36.01464 32.47807 19270 ft 390 kts 117°
2026-05-06 19:02 36.00223 32.50770 18840 ft 387 kts 117°
2026-05-06 19:02 35.98992 32.53704 18421 ft 384 kts 117°
2026-05-06 19:02 35.97770 32.56617 17948 ft 380 kts 117°
2026-05-06 19:03 35.96511 32.59471 17471 ft 377 kts 119°
2026-05-06 19:03 35.95289 32.62315 17008 ft 373 kts 117°
2026-05-06 19:03 35.94131 32.65152 16596 ft 368 kts 116°
2026-05-06 19:03 35.92976 32.67963 16181 ft 365 kts 117°
2026-05-06 19:04 35.91821 32.70739 15761 ft 362 kts 117°
2026-05-06 19:04 35.90669 32.73486 15337 ft 359 kts 117°
2026-05-06 19:04 35.89521 32.76211 14919 ft 356 kts 117°
2026-05-06 19:04 35.88382 32.78910 14525 ft 353 kts 117°
2026-05-06 19:05 35.87250 32.81586 14127 ft 351 kts 117°
2026-05-06 19:05 35.86126 32.84243 13750 ft 348 kts 117°
2026-05-06 19:05 35.85011 32.86877 13358 ft 345 kts 117°
2026-05-06 19:05 35.83905 32.89484 12972 ft 341 kts 117°
2026-05-06 19:06 35.82826 32.92028 12600 ft 338 kts 117°
2026-05-06 19:06 35.81742 32.94581 12238 ft 335 kts 117°
2026-05-06 19:06 35.80665 32.97116 11889 ft 333 kts 116°
2026-05-06 19:06 35.79597 32.99628 11535 ft 329 kts 116°
2026-05-06 19:07 35.78540 33.02112 11173 ft 326 kts 116°
2026-05-06 19:07 35.77832 33.03774 10925 ft 323 kts 116°
2026-05-06 19:07 35.76464 33.06985 10430 ft 315 kts 116°
2026-05-06 19:07 35.75460 33.09338 10052 ft 306 kts 116°
2026-05-06 19:08 35.74483 33.11627 9660 ft 298 kts 115°
2026-05-06 19:08 35.73500 33.13837 9263 ft 291 kts 118°
2026-05-06 19:08 35.72445 33.15933 8925 ft 287 kts 120°
2026-05-06 19:08 35.71382 33.18000 8660 ft 285 kts 120°
2026-05-06 19:09 35.70321 33.20056 8401 ft 284 kts 120°
2026-05-06 19:09 35.69264 33.22111 8150 ft 284 kts 120°
2026-05-06 19:09 35.68216 33.24155 7902 ft 282 kts 120°
2026-05-06 19:09 35.67172 33.26197 7661 ft 282 kts 120°
2026-05-06 19:10 35.66133 33.28233 7421 ft 281 kts 120°
2026-05-06 19:10 35.65093 33.30263 7178 ft 280 kts 120°
2026-05-06 19:10 35.64059 33.32289 6939 ft 279 kts 120°
2026-05-06 19:10 35.63029 33.34310 6705 ft 278 kts 121°
2026-05-06 19:11 35.62015 33.36324 6460 ft 277 kts 120°
2026-05-06 19:11 35.60998 33.38334 6207 ft 276 kts 120°
2026-05-06 19:11 35.59984 33.40343 5976 ft 277 kts 120°
2026-05-06 19:11 35.58792 33.42205 5934 ft 280 kts 136°
2026-05-06 19:12 35.57328 33.43752 5948 ft 278 kts 140°
2026-05-06 19:12 35.55818 33.45248 5961 ft 278 kts 140°
2026-05-06 19:12 35.54306 33.46737 5969 ft 278 kts 140°
2026-05-06 19:12 35.52804 33.48224 5970 ft 277 kts 140°
2026-05-06 19:13 35.51315 33.49694 5968 ft 279 kts 140°
2026-05-06 19:13 35.49797 33.51182 5969 ft 279 kts 141°
2026-05-06 19:13 35.48287 33.52669 5967 ft 279 kts 140°
2026-05-06 19:13 35.46764 33.54161 5967 ft 281 kts 140°
2026-05-06 19:14 35.45240 33.55651 5971 ft 279 kts 140°
2026-05-06 19:14 35.43721 33.57141 5970 ft 278 kts 140°
2026-05-06 19:14 35.42209 33.58629 5971 ft 280 kts 140°
2026-05-06 19:14 35.40690 33.60119 5970 ft 278 kts 140°
2026-05-06 19:15 35.39185 33.61610 5967 ft 279 kts 140°
2026-05-06 19:15 35.37684 33.63115 5968 ft 278 kts 140°
2026-05-06 19:15 35.36184 33.64623 5968 ft 280 kts 140°
2026-05-06 19:15 35.34683 33.66131 5968 ft 279 kts 140°
2026-05-06 19:16 35.33183 33.67638 5964 ft 280 kts 140°
2026-05-06 19:16 35.31705 33.69122 5961 ft 267 kts 140°
2026-05-06 19:16 35.30315 33.70524 5953 ft 251 kts 140°
2026-05-06 19:16 35.28988 33.71864 5956 ft 246 kts 140°
2026-05-06 19:17 35.27669 33.73195 5963 ft 246 kts 140°
2026-05-06 19:17 35.26349 33.74528 5968 ft 246 kts 140°
2026-05-06 19:17 35.25030 33.75859 5969 ft 245 kts 140°
2026-05-06 19:17 35.23632 33.76869 5952 ft 225 kts 166°
2026-05-06 19:18 35.22106 33.76902 5946 ft 220 kts 195°
2026-05-06 19:18 35.21130 33.76554 5959 ft 221 kts 199°
2026-05-06 19:18 35.19740 33.75981 5988 ft 197 kts 200°
2026-05-06 19:18 35.18511 33.75470 5826 ft 181 kts 200°
2026-05-06 19:19 35.17347 33.74989 5536 ft 172 kts 200°
2026-05-06 19:19 35.16229 33.74531 5200 ft 167 kts 200°
2026-05-06 19:19 35.15200 33.74115 4876 ft 148 kts 200°
2026-05-06 19:19 35.14234 33.73721 4510 ft 145 kts 200°
2026-05-06 19:20 35.13282 33.73307 4207 ft 145 kts 200°
2026-05-06 19:20 35.12344 33.72862 3950 ft 144 kts 206°
2026-05-06 19:20 35.11479 33.72244 3754 ft 144 kts 217°
2026-05-06 19:20 35.10743 33.71423 3567 ft 143 kts 230°
2026-05-06 19:21 35.10194 33.70415 3379 ft 142 kts 243°
2026-05-06 19:21 35.09818 33.69302 3179 ft 142 kts 253°
2026-05-06 19:21 35.09626 33.68128 3000 ft 140 kts 267°
2026-05-06 19:21 35.09766 33.66966 2870 ft 139 kts 287°
2026-05-06 19:22 35.10084 33.65857 2758 ft 138 kts 292°
2026-05-06 19:22 35.10471 33.64783 2595 ft 138 kts 295°
2026-05-06 19:22 35.10890 33.63731 2407 ft 137 kts 297°
2026-05-06 19:22 35.11298 33.62679 2182 ft 137 kts 293°
2026-05-06 19:23 35.11608 33.61583 1916 ft 137 kts 288°
2026-05-06 19:23 35.11899 33.60483 1684 ft 136 kts 290°
2026-05-06 19:23 35.12251 33.59413 1467 ft 136 kts 293°
2026-05-06 19:23 35.12627 33.58358 1300 ft 136 kts 293°
2026-05-06 19:24 35.12995 33.57291 1112 ft 137 kts 292°
2026-05-06 19:24 35.13342 33.56208 985 ft 137 kts 289°
2026-05-06 19:24 35.13679 33.55117 863 ft 137 kts 292°
2026-05-06 19:24 35.14038 33.54041 672 ft 137 kts 291°
2026-05-06 19:25 35.14390 33.52965 457 ft 136 kts 292°
2026-05-06 19:25 35.14729 33.51955 399 ft 112 kts 291°
2026-05-06 19:25 35.14953 33.51264 396 ft 63 kts 291°
2026-05-06 19:25 35.15087 33.50862 399 ft 49 kts 291°
2026-05-06 19:26 35.15212 33.50474 395 ft 49 kts 292°
2026-05-06 19:26 35.15322 33.50137 396 ft 27 kts 291°
2026-05-06 19:26 35.15397 33.49917 396 ft 29 kts 293°
2026-05-06 19:26 35.15524 33.49725 396 ft 30 kts 324°
2026-05-06 19:27 35.15605 33.49654 399 ft 9 kts 324°
2026-05-06 19:27 35.15671 33.49641 399 ft 11 kts 33°
2026-05-06 19:27 35.15702 33.49736 395 ft 13 kts 77°
2026-05-06 19:27 35.15719 33.49856 398 ft 15 kts 81°
2026-05-06 19:28 35.15728 33.49956 396 ft 8 kts 84°
2026-05-06 19:28 35.15730 33.49980 395 ft 3 kts 84°
2026-05-06 19:28 35.15734 33.50017 399 ft 5 kts 84°
2026-05-06 19:28 35.15738 33.50054 397 ft 4 kts 73°
2026-05-06 19:29 35.15761 33.50079 399 ft 1 kts 24°
2026-05-06 19:29 35.15773 33.50085 399 ft 0 kts 21°